Temperature
15 14 14 14 14 14 14 14 14 14 14 14 14 14 14 14 14 14 14 14 14 14 14 14 14 15 14 14 14 14 14 14 14 14 14 14 14 14 14 14 14 14 14
15 14 14 14 14 14 14 14 14 14 14 14 14 14 14 14 14 14 14 14 14 14 14 14 14 14 14 14 14 14 14 14 14 14 14 14 14 14 13 14 13 13 13
14 14 14 14 14 14 14 14 14 14 14 14 14 14 14 14 14 14 14 14 14 14 14 14 14 14 14 14 14 14 14 14 14 14 14 14 14 13 13 13 13 13 13
14 14 14 13 13 13 13 13 13 14 13 14 14 13 13 13 13 13 13 14 14 14 14 14 14 14 14 14 14 14 14 14 14 14 14 14 14 13 13 13 13 13 13
14 14 14 13 13 13 13 13 13 13 13 13 13 13 13 13 13 13 13 13 13 13 13 13 13 13 14 14 14 14 14 14 14 14 14 14 14 13 13 13 13 13 13
14 13 13 13 13 13 13 13 13 13 13 13 13 13 13 13 13 13 13 13 13 13 13 13 13 13 13 13 13 13 13 13 13 13 13 13 13 13 13 13 13 13 13
13 13 13 13 13 13 13 13 13 13 13 13 13 13 12 12 13 13 13 13 13 13 13 13 13 13 13 13 13 13 13 13 13 13 13 13 13 13 13 13 13 13 13
13 13 13 13 13 13 13 13 13 12 12 12 12 12 12 12 12 13 13 13 13 12 12 12 12 12 13 13 12 12 12 12 13 13 13 13 13 13 12 12 12 12 12
13 13 13 13 12 12 12 12 12 12 12 12 12 12 12 12 12 12 12 13 12 12 12 12 12 12 12 12 12 12 12 12 12 12 12 12 12 12 12 12 12 12 12
12 12 12 12 12 12 12 12 12 12 12 12 12 12 12 12 12 12 12 12 12 12 12 12 12 12 12 12 12 12 12 12 12 12 12 12 12 12 12 12 12 12 12
12 12 12 12 12 12 12 12 12 12 12 12 12 12 12 12 12 12 12 12 12 12 12 12 12 12 12 12 12 12 12 12 12 12 12 12 12 12 12 12 12 12 12
12 12 12 12 12 11 11 11 11 11 11 11 11 11 11 12 11 12 12 12 12 12 12 12 12 12 12 12 12 12 12 12 12 12 12 12 12 12 11 11 11 11 11
12 11 11 11 11 11 11 11 11 11 11 11 11 11 11 11 11 11 11 11 11 11 11 11 11 11 11 11 11 11 11 11 11 11 11 11 11 11 11 11 11 11 11
11 11 11 11 11 11 11 11 11 11 11 11 11 11 11 11 11 11 11 11 11 11 11 11 11 11 11 11 11 11 11 11 11 11 11 11 11 11 11 10 10 10 11
11 11 11 11 11 11 10 10 10 10 10 10 10 10 10 10 10 11 11 11 11 11 11 11 11 11 10 10 10 11 11 11 11 11 11 11 11 11 10 10 10 10 10
11 11 11 10 10 10 10 10 10 10 10 10 10 10 10 10 10 10 10 10 10 10 10 10 10 10 10 10 10 10 10 10 10 10 10 10 10 10 10 10 10 10 10
10 10 10 10 10 10 10 10 10 9 9 9 9 9 9 9 9 9 9 9 9 9 9 9 9 9 9 10 10 10 10 10 10 10 10 10 10 10 10 9 9 9 9
10 10 10 9 9 9 9 9 9 9 9 9 9 9 9 9 9 9 9 9 9 9 9 9 9 9 9 9 9 9 9 9 9 9 10 10 9 9 9 9 9 9 9
9 9 9 9 9 9 9 9 8 9 9 8 8 8 8 8 8 8 8 8 8 8 8 8 8 8 8 9 9 9 9 9 9 9 9 9 9 9 8 8 8 8 8
9 9 9 9 8 8 8 8 8 8 8 8 8 8 8 8 8 8 8 8 8 8 8 8 8 8 8 8 8 8 8 9 9 8 8 8 8 8 8 8 8 8 8
8 8 8 8 8 8 8 8 8 8 8 8 7 7 7 7 7 7 7 7 7 7 7 7 7 7 7 7 7 8 8 8 8 8 8 7 7 7 7 7 7 7 7
7 7 7 7 7 7 7 7 7 7 7 7 7 7 7 7 7 7 7 7 7 6 6 7 6 6 6 6 6 6 6 7 7 7 7 7 7 7 7 7 7 7 7
7 7 7 7 7 7 7 6 6 6 6 6 6 6 6 6 6 6 6 6 6 6 6 6 6 6 6 6 6 5 5 5 5 6 6 6 6 6 6 6 6 6 6
6 6 6 6 6 6 6 6 6 6 6 6 6 6 5 5 5 5 5 5 5 5 5 5 5 5 5 5 5 5 5 4 4 4 5 5 6 6 6 6 6 6 6
6 6 6 6 6 6 6 5 5 5 5 5 5 5 5 5 5 5 5 5 5 5 5 5 5 5 4 4 4 4 4 4 4 3 4 4 5 5 5 5 5 5 5
5 5 5 5 5 5 5 5 5 5 5 4 4 4 4 4 4 4 4 4 4 4 4 4 4 4 4 4 4 4 3 3 3 3 3 3 4 4 4 5 5 4 5
Wind_Speed
2 2 5 7 7 8 8 9 9 9 9 9 10 9 9 9 9 8 8 8 8 8 9 9 9 10 10 10 10 10 10 10 10 10 10 10 9 9 8 8 8 8 8
4 4 7 8 7 8 9 9 10 9 9 9 9 9 8 8 8 8 8 8 8 8 9 9 9 9 9 9 9 9 9 10 10 10 10 9 8 8 7 7 7 6 7
4 5 7 8 8 9 9 9 9 9 9 8 8 8 8 8 7 7 7 7 7 8 8 8 8 9 8 8 8 8 8 9 9 9 9 8 7 7 6 6 6 5 5
5 5 6 8 9 9 9 8 8 8 8 8 7 8 7 7 7 7 7 6 6 6 7 7 7 8 8 7 7 7 7 8 8 8 8 7 6 6 5 5 5 5 4
5 5 6 9 9 8 8 8 7 7 7 7 7 7 7 6 6 6 6 6 5 5 6 6 6 6 6 6 6 6 6 7 7 8 7 6 5 5 4 4 4 4 3
5 5 6 9 8 8 8 7 7 6 6 6 6 6 6 6 5 5 5 5 5 4 4 5 5 5 5 5 5 5 5 6 7 7 6 6 5 4 3 3 2 2 2
5 5 6 8 8 8 7 7 6 6 6 6 6 5 6 5 5 4 4 4 4 3 3 3 4 4 4 4 4 4 5 5 6 5 4 4 3 3 3 2 1 0 1
5 5 5 7 7 7 6 6 5 5 5 5 5 5 5 5 5 4 4 3 3 3 2 2 2 3 3 4 3 4 4 5 4 3 2 2 2 3 2 2 2 1 1
5 5 4 4 5 5 5 5 5 5 5 5 4 4 4 4 4 4 4 3 2 2 1 1 2 2 3 3 2 3 3 4 4 2 1 1 2 3 3 3 3 3 2
4 3 3 4 4 4 4 4 5 4 4 4 4 4 5 4 4 4 4 3 2 2 1 1 1 1 1 1 1 2 3 3 3 2 1 2 3 4 4 4 4 4 4
2 1 2 2 3 4 4 4 4 4 4 4 4 4 4 4 3 3 3 3 3 2 2 1 0 0 1 1 0 1 2 2 1 1 2 3 4 5 5 5 5 6 6
3 2 1 2 2 3 3 3 4 3 3 4 4 3 3 3 3 3 3 3 3 3 2 2 1 2 2 2 1 1 1 1 1 2 3 5 6 6 6 6 7 7 7
4 3 2 2 2 2 2 2 2 3 3 3 3 3 3 3 3 3 3 3 4 4 3 3 3 3 2 2 1 1 1 1 2 3 4 6 7 7 7 7 7 7 7
2 3 3 2 2 2 2 2 2 2 2 1 1 2 2 2 2 2 2 2 3 3 3 3 2 3 2 2 1 1 2 2 3 3 5 6 7 8 8 8 8 8 8
3 2 2 3 3 2 2 1 1 1 1 1 2 2 2 1 1 1 1 2 2 2 2 2 2 2 2 2 2 2 2 3 4 4 5 6 7 8 8 9 9 9 9
3 3 2 3 3 3 2 2 2 1 1 1 1 2 2 2 2 1 0 1 1 2 2 2 1 1 1 1 2 3 3 4 4 4 5 5 6 7 8 8 9 9 9
3 2 2 2 2 3 3 2 2 2 2 1 1 2 2 2 2 1 1 0 1 2 2 2 2 1 1 1 2 3 3 3 3 4 4 4 4 5 7 8 9 9 10
2 1 2 1 1 2 2 2 2 2 2 2 2 2 2 2 2 1 1 1 1 1 1 1 1 1 1 1 2 3 3 3 3 3 2 2 3 3 5 7 8 9 10
3 2 1 1 1 2 2 1 1 1 1 2 2 2 2 2 2 1 1 0 0 0 1 1 1 1 2 2 3 3 3 3 3 2 2 2 2 3 4 5 7 8 9
1 2 1 1 1 1 1 1 1 0 1 1 1 1 2 2 2 1 1 0 0 0 1 1 1 1 2 2 3 3 3 3 2 2 3 2 2 3 3 4 5 6 8
1 1 1 1 1 1 1 1 1 2 2 1 1 1 2 2 2 2 1 1 1 1 1 1 1 1 1 1 1 3 3 3 2 2 2 2 2 3 3 3 4 4 5
1 1 1 1 1 1 1 1 1 1 2 2 1 1 1 1 2 2 2 2 2 1 1 1 1 1 1 1 0 1 2 3 2 2 2 2 2 2 3 4 4 4 5
1 2 2 2 1 1 1 1 1 1 1 0 1 1 2 2 2 2 2 2 2 2 2 2 2 2 2 2 1 1 1 3 3 2 2 2 2 2 2 3 4 5 5
2 2 1 1 1 1 1 2 2 2 2 2 2 2 2 2 2 2 2 2 3 2 3 3 2 2 3 2 2 2 2 2 2 2 3 2 2 3 3 3 4 5 5
1 0 1 1 0 0 1 2 3 2 2 1 1 2 2 2 2 3 2 2 2 2 3 3 3 3 3 3 2 2 2 2 2 3 4 3 3 3 3 3 3 4 5
0 0 1 1 0 1 1 1 3 3 2 1 2 2 2 2 2 2 2 2 2 2 3 3 3 4 4 3 3 2 2 2 2 3 4 4 4 3 3 3 3 4 5
Wind_Direction
194 208 158 136 129 123 117 112 110 106 105 105 103 101 99 95 94 94 96 100 100 96 96 93 88 87 85 81 79 77 74 74 76 77 76 77 80 83 82 77 82 83 87
165 173 146 135 128 123 117 111 105 103 105 107 107 102 101 100 96 93 94 97 98 99 95 91 88 88 87 85 81 78 76 75 73 73 72 71 72 76 81 81 81 86 87
138 144 139 135 130 123 116 111 107 103 100 102 105 103 101 101 99 94 92 94 95 94 92 90 89 89 89 86 84 82 79 77 74 71 66 61 64 71 73 77 78 83 85
128 127 136 135 131 126 119 114 110 107 102 99 103 104 104 100 94 90 88 90 91 93 92 91 91 91 89 87 87 86 82 77 74 70 63 58 57 67 71 74 79 79 80
114 117 135 136 132 127 123 119 115 110 104 101 100 103 102 100 96 89 86 88 87 91 94 93 92 94 92 91 89 90 85 79 74 71 63 54 48 60 67 69 78 79 76
112 111 132 136 134 128 124 123 119 114 109 105 102 101 99 97 95 93 89 89 91 98 99 97 94 96 99 95 92 91 89 85 76 71 61 50 43 48 56 59 68 85 77
120 107 125 134 134 135 133 129 123 116 111 107 104 101 99 95 91 90 94 89 89 103 112 109 101 101 102 100 94 89 85 88 83 73 61 46 24 21 29 37 38 52 95
120 102 107 125 130 132 132 129 126 121 116 109 105 99 95 90 85 81 85 88 84 86 115 120 109 108 113 105 97 90 83 87 84 72 58 29 356 358 353 339 331 321 276
106 101 88 101 113 122 128 130 125 121 115 113 106 97 90 82 76 74 68 65 66 69 104 125 125 124 115 105 102 87 81 82 80 67 35 348 322 321 321 320 310 295 288
102 107 100 92 95 94 103 119 125 124 111 105 98 87 80 79 73 70 59 52 48 43 50 118 122 144 133 114 115 97 78 76 68 45 355 307 302 298 301 303 297 289 282
122 115 107 103 92 93 98 102 103 112 111 102 94 84 81 77 75 66 56 49 44 35 30 58 79 53 71 90 101 98 76 66 44 331 294 285 289 287 284 287 288 286 280
184 184 170 152 120 101 104 99 94 99 100 96 91 88 83 76 73 65 58 50 40 34 28 35 45 51 35 31 357 34 45 353 331 288 278 280 282 283 282 281 283 286 282
191 187 190 187 148 129 113 101 91 90 87 89 93 95 87 76 67 57 52 40 30 30 32 34 35 36 36 25 6 344 317 305 296 282 279 280 279 280 278 278 282 283 287
183 204 199 193 173 153 128 118 111 95 85 89 103 111 100 78 63 51 46 36 31 24 24 31 30 22 18 2 340 315 296 283 280 280 279 280 280 278 279 279 278 281 286
191 216 216 189 181 172 152 155 145 147 146 149 145 135 128 118 107 59 43 42 25 22 21 12 19 12 6 354 339 314 291 281 275 276 280 282 282 281 281 284 283 285 286
209 217 221 205 185 170 170 174 179 169 160 149 150 158 146 141 140 124 64 19 10 11 11 3 345 325 311 334 323 314 298 288 280 280 280 282 284 286 284 288 290 289 289
207 212 216 209 181 173 180 187 175 175 161 159 172 175 156 152 149 135 146 319 332 350 3 5 351 347 309 317 304 302 299 289 286 285 285 286 286 292 292 290 291 290 292
183 200 220 202 176 188 187 183 176 172 169 178 180 178 170 166 154 135 172 238 306 357 9 328 325 326 296 289 287 287 288 287 279 276 275 281 285 288 293 295 295 292 292
188 191 187 185 177 179 183 170 168 167 186 201 189 181 184 175 163 154 194 233 259 7 340 309 345 313 290 294 287 286 287 280 273 273 267 279 281 287 293 303 305 302 299
172 174 150 137 159 148 148 127 121 156 209 230 216 209 189 181 176 171 195 240 186 248 304 294 287 312 291 287 301 303 293 282 268 255 251 266 281 284 295 306 312 309 309
132 142 154 142 160 129 136 160 192 224 223 224 244 237 219 196 188 185 208 210 207 208 245 252 271 295 317 315 330 322 308 284 262 260 259 260 273 291 308 312 311 308 307
189 208 201 183 170 163 182 190 202 212 221 217 228 235 235 217 212 211 203 207 212 212 238 236 198 211 288 319 316 338 323 321 306 294 284 271 279 314 313 321 318 308 304
228 230 215 204 190 181 164 131 77 56 6 307 227 233 252 243 234 233 222 211 212 204 221 232 206 195 231 274 234 186 221 259 297 282 273 278 298 303 297 305 306 310 306
240 251 238 215 190 180 158 170 170 195 223 241 244 247 261 262 245 235 232 223 213 211 220 234 221 213 204 241 265 244 232 222 252 295 283 279 287 289 292 300 297 300 299
244 256 273 235 186 169 175 192 191 210 226 251 259 264 268 262 259 246 237 228 225 223 222 228 230 220 214 223 232 245 258 257 236 241 275 289 294 277 280 274 273 285 294
186 169 237 227 254 217 193 207 204 214 222 246 266 258 271 275 263 253 244 229 228 230 227 229 224 222 224 223 231 232 230 234 235 236 256 279 286 286 288 271 270 278 294
Height
1504 1506 1508 1509 1510 1512 1513 1514 1515 1516 1517 1518 1518 1519 1520 1520 1521 1521 1522 1522 1523 1523 1524 1524 1525 1525 1526 1526 1526 1527 1527 1528 1528 1529 1529 1530 1530 1531 1531 1532 1532 1532 1533
1503 1505 1507 1509 1510 1511 1513 1514 1515 1516 1517 1518 1518 1519 1520 1520 1521 1521 1522 1522 1523 1523 1524 1524 1525 1525 1525 1526 1526 1527 1527 1528 1528 1529 1529 1530 1530 1531 1531 1532 1532 1533 1533
1503 1505 1507 1508 1510 1511 1512 1514 1515 1516 1517 1518 1518 1519 1519 1520 1520 1521 1522 1522 1522 1523 1524 1524 1524 1525 1525 1525 1526 1526 1527 1528 1528 1528 1529 1530 1530 1531 1531 1532 1532 1533 1533
1503 1505 1506 1508 1510 1511 1512 1513 1514 1515 1516 1517 1518 1518 1519 1520 1520 1521 1521 1522 1522 1523 1523 1524 1524 1525 1525 1525 1526 1526 1527 1527 1528 1528 1529 1529 1530 1531 1531 1531 1532 1532 1532
1503 1504 1506 1508 1509 1510 1512 1513 1514 1515 1516 1517 1517 1518 1519 1519 1520 1520 1521 1521 1522 1522 1523 1523 1524 1524 1525 1525 1525 1526 1526 1527 1527 1528 1528 1529 1529 1530 1530 1531 1531 1531 1532
1502 1504 1505 1507 1509 1510 1511 1513 1514 1514 1515 1516 1517 1517 1518 1518 1519 1520 1520 1521 1521 1522 1522 1523 1523 1524 1524 1524 1525 1525 1526 1526 1527 1527 1528 1528 1529 1529 1530 1530 1530 1531 1531
1502 1503 1505 1506 1508 1509 1511 1512 1513 1514 1515 1515 1516 1516 1517 1518 1518 1519 1519 1520 1520 1521 1521 1522 1523 1523 1523 1524 1524 1525 1525 1525 1526 1526 1527 1527 1528 1529 1529 1529 1530 1530 1530
1501 1503 1504 1506 1507 1508 1509 1511 1512 1513 1514 1514 1515 1515 1516 1517 1517 1518 1518 1519 1519 1520 1520 1521 1521 1522 1522 1523 1523 1524 1524 1524 1524 1525 1525 1526 1527 1527 1528 1528 1529 1529 1529
1501 1502 1503 1505 1506 1507 1508 1510 1511 1511 1512 1513 1514 1514 1515 1515 1516 1516 1517 1517 1518 1518 1519 1520 1520 1521 1521 1521 1522 1522 1523 1523 1523 1524 1524 1525 1525 1526 1526 1527 1527 1527 1528
1500 1501 1502 1503 1505 1506 1507 1508 1509 1510 1511 1511 1512 1513 1513 1514 1514 1515 1515 1516 1516 1517 1517 1518 1518 1519 1519 1520 1520 1521 1521 1521 1521 1522 1522 1523 1524 1524 1524 1525 1525 1525 1526
1499 1500 1501 1502 1503 1504 1505 1506 1507 1508 1509 1510 1510 1511 1511 1512 1513 1513 1514 1514 1514 1515 1515 1515 1516 1516 1517 1517 1518 1519 1519 1519 1520 1520 1520 1521 1521 1522 1522 1523 1523 1523 1523
1497 1498 1499 1500 1501 1502 1503 1504 1505 1506 1507 1508 1508 1509 1509 1510 1511 1511 1512 1512 1512 1513 1513 1513 1514 1514 1515 1515 1516 1516 1517 1517 1517 1518 1518 1519 1519 1519 1520 1520 1520 1520 1520
1495 1496 1497 1498 1499 1500 1501 1502 1503 1504 1505 1505 1506 1507 1507 1508 1508 1509 1509 1509 1510 1510 1511 1511 1511 1512 1512 1513 1513 1514 1514 1514 1515 1515 1515 1516 1516 1517 1517 1517 1517 1517 1517
1493 1494 1495 1496 1497 1498 1499 1500 1500 1501 1502 1503 1503 1504 1505 1505 1505 1506 1506 1507 1507 1508 1508 1508 1509 1509 1510 1510 1511 1511 1511 1511 1512 1512 1512 1513 1513 1513 1514 1514 1514 1514 1514
1490 1491 1493 1494 1495 1495 1496 1497 1498 1498 1499 1500 1501 1501 1502 1502 1502 1503 1503 1504 1504 1505 1505 1506 1506 1507 1507 1507 1508 1508 1508 1508 1508 1509 1509 1509 1509 1510 1510 1510 1510 1510 1510
1488 1489 1490 1491 1492 1493 1493 1494 1495 1496 1496 1497 1498 1498 1499 1499 1500 1500 1500 1501 1501 1502 1502 1502 1503 1503 1504 1504 1504 1505 1505 1505 1505 1505 1505 1505 1505 1506 1506 1506 1506 1506 1506
1485 1486 1487 1488 1488 1489 1490 1491 1492 1493 1494 1494 1495 1495 1496 1496 1497 1497 1497 1498 1498 1499 1499 1500 1500 1500 1500 1500 1501 1501 1501 1501 1501 1501 1501 1501 1501 1501 1502 1502 1502 1502 1502
1482 1483 1484 1484 1485 1486 1487 1488 1489 1490 1491 1491 1492 1492 1493 1493 1493 1494 1494 1495 1495 1496 1496 1496 1497 1497 1497 1497 1497 1497 1497 1497 1497 1497 1497 1497 1497 1497 1497 1497 1497 1497 1497
1479 1480 1480 1481 1482 1483 1484 1485 1486 1486 1487 1488 1489 1489 1489 1490 1490 1490 1491 1491 1492 1492 1492 1493 1493 1493 1493 1493 1493 1493 1493 1493 1493 1493 1492 1492 1492 1492 1493 1493 1493 1493 1492
1476 1477 1477 1478 1479 1480 1481 1481 1482 1483 1484 1485 1485 1486 1486 1486 1487 1487 1487 1488 1488 1488 1489 1489 1489 1490 1489 1489 1489 1489 1489 1488 1488 1488 1488 1488 1488 1488 1488 1488 1488 1488 1487
1473 1474 1474 1475 1476 1477 1477 1477 1478 1479 1480 1481 1482 1482 1482 1482 1483 1483 1484 1484 1484 1485 1485 1486 1485 1486 1486 1486 1485 1484 1484 1484 1483 1483 1484 1484 1484 1484 1484 1484 1483 1483 1482
1469 1470 1471 1471 1472 1473 1474 1474 1475 1476 1476 1477 1478 1478 1479 1479 1479 1479 1480 1480 1480 1480 1481 1482 1482 1482 1482 1482 1482 1481 1480 1480 1479 1480 1480 1480 1480 1480 1480 1479 1479 1478 1478
1466 1467 1467 1468 1469 1470 1471 1472 1472 1472 1472 1473 1474 1474 1475 1475 1475 1475 1476 1476 1476 1477 1477 1478 1478 1478 1478 1479 1479 1480 1478 1476 1476 1475 1475 1476 1476 1476 1475 1475 1474 1474 1473
1463 1464 1464 1465 1466 1466 1467 1468 1468 1468 1468 1469 1469 1470 1471 1471 1471 1471 1471 1472 1472 1472 1473 1474 1474 1474 1475 1475 1475 1475 1476 1475 1474 1471 1471 1471 1472 1471 1471 1470 1470 1469 1468
1461 1461 1462 1463 1463 1463 1464 1464 1464 1465 1465 1465 1466 1466 1467 1467 1467 1467 1467 1467 1468 1468 1469 1469 1470 1470 1471 1471 1471 1471 1471 1471 1470 1469 1466 1466 1467 1467 1466 1466 1465 1464 1463
1459 1459 1459 1459 1460 1460 1461 1461 1461 1461 1461 1461 1462 1462 1462 1463 1463 1463 1463 1463 1463 1464 1464 1465 1465 1466 1466 1466 1467 1467 1467 1467 1466 1465 1464 1462 1462 1461 1461 1461 1461 1460 1459